Tracking 20942 objects as of 4-Jul-2020
HD Live streaming from Space Station
objects crossing your sky now

NOAA 16 DEB

Track NOAA 16 DEB now!
10-day predictions


NORAD ID: 41414
Int'l Code: 2000-055KT
Perigee: 765.2 km
Apogee: 860.3 km
Inclination: 99.0 °
Period: 101.0 minutes
Semi major axis: 7183 km
RCS: Unknown
Launch date: September 21, 2000
Source: United States (US)
Launch site: AIR FORCE WESTERN TEST RANGE (AFWTR)

Note: This is SATELLITE DEBRIS
aabbcc
Your satellite tracking list
Your tracking list is empty




NASA's NSSDC Master Catalog

Two Line Element Set (TLE):
1 41414U 00055KT  20186.16164135  .00000735  00000-0  32115-3 0  9998
2 41414  98.9693 311.1803 0066217 344.9504  14.9703 14.25866411227337
Source of the keplerian elements: AFSPC